World > North America > United States > Michigan > Detroit Beach

Hourly Detroit Beach, MI Regional Weather

Feedback E-mail the Weather

Quick WX

Detroit Beach, MI Weather Maps

°F °C°F °C
Detroit Beach Weather Map
UTC Time: 8/15/2022, 03:19
Your Time:

Detroit Beach, MI Regional Weather

Expires:202208150400;;117551
ASUS43 KDTX 150310
RWRMI 
MICHIGAN HOURLY REGIONAL WEATHER ROUNDUP
NATIONAL WEATHER SERVICE DETROIT/PONTIAC MI
1100 PM EDT SUN AUG 14 2022

NOTE: "FAIR" INDICATES FEW OR NO CLOUDS BELOW 12,000 FEET WITH NO
SIGNIFICANT WEATHER AND/OR OBSTRUCTION TO VISIBILITY.


MIZ047>049-052>055-059>063-066>070-074>076-081>083-150400-
SOUTHEAST LOWER MICHIGAN
  
CITY           SKY/WX    TMP DP  RH WIND       PRES   REMARKS
ADRIAN         CLOUDY    66  61  84 NE6       30.01S                  
ALMA           PTCLDY    65  61  87 CALM      30.04S                  
ANN ARBOR      CLOUDY    63  61  93 CALM      30.01R                  
BAD AXE        CLOUDY    64  64  99 N3        30.04S                  
CARO           CLOUDY    65  60  82 CALM      30.04R                  
DETROIT CITY   CLOUDY    72  60  66 NE5       30.01R                  
DETROIT        CLOUDY    70  59  68 E3        30.01R                  
FLINT          CLOUDY    67  58  72 NE6       30.04R                  
GROSSE ILE     CLOUDY    69  64  85 CALM      30.00R                  
HILLSDALE      CLOUDY    63  61  94 NE3       30.01S                  
HOWELL         CLOUDY    66  60  81 CALM      30.03R                  

CITY           SKY/WX    TMP DP  RH WIND       PRES   REMARKS
JACKSON        CLOUDY    65  60  84 CALM      30.02R                  
LAMBERTVILLE   CLOUDY    64  64  99 CALM      29.99S                  
LANSING        CLOUDY    66  60  81 CALM      30.04R                  
LAPEER         CLOUDY    67  55  65 CALM      30.04R                  
MASON          CLOUDY    64  61  90 CALM      30.03S                  
MONROE         CLOUDY    67  61  81 N3        30.00R                  
MT. CLEMENS    MOCLDY    67  66  99 NE9       29.99R                  
PONTIAC        CLOUDY    66  58  75 NE8       30.02R                  
PORT HOPE        N/A     70  60  70 N13       30.03S                  
PORT HURON     CLOUDY    66  59  77 CALM      30.02S                  
TRI CITIES     CLOUDY    67  59  75 NE6       30.04S                  
MIDLAND        MOCLDY    67  61  80 NE6       30.03F                  
TROY           CLOUDY    69  58  68 NE6       30.04R                  
SAGINAW HB     CLOUDY    64  58  80 NE3       30.04S                  
$$

SKY/WX - Weather  TMP - Temperature  DP - Dew Point  RH - Humidity
WIND - Wind Direction/Speed PRES - Barometric Pressure VSB - Visibility
WCI - Wind Chill Index E13G22 Wind - East Wind 13 mph/Gusts of 22 mph

Trending Headlines

Detroit Beach Radar Loop



Detroit Beach Quick Facts


National Two Day Weather Forecast


E-mail the Detroit Beach Weather Forecast

Voice your opinion or tell us about page issues...